Location: LDNL
(36.4545°S, 141.6685°E)
Time: 12:04:51
(UTC+10:00)

A-11 Canister half - Pass Details

Date: 10 August 2022
Orbit: 1524 x 1684 km, 47.3° (Epoch: 26 September)

Event Time Altitude Azimuth Distance (km) Brightness Sun altitude
Rises 02:34:27 0° 243° (WSW) 4,748 - -57.0°
Reaches altitude 10° 02:37:57 10° 253° (WSW) 3,780 - -56.4°
Maximum altitude 02:45:54 30° 309° (NW) 2,560 - -55.0°
Drops below altitude 10° 02:54:03 10° 6° (N) 3,863 - -53.5°
Sets 02:57:43 0° 15° (NNE) 4,866 - -52.9°
